Regional Weather Roundup
Issued by NWS

Home | Current Version | Previous Version | Text Only | Print | Product List | Glossary On
Versions: 1 2 3 4 5 6 7 8 9 10 11 12 13 14 15 16 17 18 19 20 21 22 23 24 25 26 27 28 29 30 31 32 33 34 35 36 37 38 39 40 41 42 43 44 45 46 47 48 49 50
000
ASUS43 KBIS 031210
RWRND

NORTH DAKOTA REGIONAL WEATHER ROUNDUP
NATIONAL WEATHER SERVICE BISMARCK ND
700 AM CDT FRI JUL 03 2015

NOTE: "FAIR" INDICATES FEW OR NO CLOUDS BELOW 12,000 FEET WITH NO
SIGNIFICANT WEATHER AND/OR OBSTRUCTIONS TO VISIBILITY.


NDZ001>003-009>011-017-031300-
NORTHWEST NORTH DAKOTA

CITY           SKY/WX    TMP DP  RH WIND       PRES   REMARKS
WILLISTON      PTCLDY    60  58  92 N3        30.02S FOG
6HR MIN TEMP:  59; 6HR MAX TEMP:  67;

MINOT          CLOUDY    60  58  92 W3        29.99R FOG
MINOT AFB      CLEAR     58  58 100 W5        29.99R FOG
$$

NDZ018>021-031>035-040>046-031300-
SOUTHWEST NORTH DAKOTA

CITY           SKY/WX    TMP DP  RH WIND       PRES   REMARKS
BISMARCK       CLOUDY    63  61  93 W6        30.02R FOG
6HR MIN TEMP:  62; 6HR MAX TEMP:  66;

DICKINSON      PTCLDY    59  57  93 S3        30.03R FOG
GARRISON         N/A     61  58  90 CALM      30.01R
6HR MIN TEMP:  58; 6HR MAX TEMP:  64;

HETTINGER ARPT PTCLDY    56  54  93 NW3       30.07R FOG
$$

NDZ004>008-012>016-024-026-027-054-031300-
NORTHEAST NORTH DAKOTA

CITY           SKY/WX    TMP DP  RH WIND       PRES   REMARKS
GRAND FORKS    FOG       62  61  96 W5        29.92R VSB 1
GRND FRKS AFB  SUNNY     63  63 100 NW5       29.93S FOG
DEVILS LAKE    CLOUDY    59  55  88 NW3       29.96R VSB<1/4
$$

NDZ022-023-025-028>030-036>039-047>053-031300-
SOUTHEAST NORTH DAKOTA

CITY           SKY/WX    TMP DP  RH WIND       PRES   REMARKS
FARGO          PTSUNNY   64  62  93 W3        29.93R FOG
6HR MIN TEMP:  62; 6HR MAX TEMP:  65;

JAMESTOWN      CLOUDY    64  62  93 W3        29.97R FOG
$$




USA.gov is the U.S. government's official web portal to all federal, state and local government web resources and services.